{"data":{"norad_id":59246,"intl_designator":"2024-049R","name":"STARLINK-31284","alt_names":[],"object_type":"PAYLOAD","status":"ACTIVE","operator":null,"country":"US","launch_date":"2024-03-16","launch_site_code":"AFETR","launch_vehicle":null,"mission":null,"orbit_class":"UNKNOWN","rcs_meters":null,"size_class":null,"mass_kg":null,"dimensions":null,"purposes":["comms"],"wikipedia_slug":null,"has_3d_model":false,"image_url":null,"decayed_at":null,"tle_current":{"epoch":"2026-05-25T03:58:30.491616Z","epoch_age_seconds":58056,"freshness":"FRESH","line1":"1 59246U 24049R   26145.16563069  .00001019  00000+0  46553-4 0  9996","line2":"2 59246  43.0020  71.5070 0000867 232.9843 127.0930 15.27582426124099","mean_motion":15.27582426,"eccentricity":8.67e-5,"inclination_deg":43.002,"raan_deg":71.507,"arg_perigee_deg":232.9843,"mean_anomaly_deg":127.093,"bstar":4.6553e-5,"rev_number":12409,"period_min":94.266599005768,"perigee_km":482.44696752781,"apogee_km":483.63669593723,"semimajor_km":6861.1788317325,"source":"CELESTRAK","updated_at":"2026-05-25T13:38:18.872259Z"}}}